TimeEDT,TemperatureF,Dew PointF,Humidity,Sea Level PressureIn,VisibilityMPH,Wind Direction,Wind SpeedMPH,Gust SpeedMPH,PrecipitationIn,Events,Conditions,WindDirDegrees,DateUTC
12:51 AM,52.0,42.1,69,30.06,10.0,NW,8.1,-,N/A,,Clear,310,2012-09-11 04:51:00
1:51 AM,51.1,42.1,71,30.07,10.0,WNW,8.1,-,N/A,,Clear,290,2012-09-11 05:51:00
2:51 AM,48.9,42.1,77,30.08,10.0,WNW,3.5,-,N/A,,Clear,290,2012-09-11 06:51:00
3:51 AM,44.1,39.9,85,30.09,10.0,NW,3.5,-,N/A,,Clear,320,2012-09-11 07:51:00
4:51 AM,43.0,39.9,89,30.11,10.0,Calm,Calm,-,N/A,,Clear,0,2012-09-11 08:51:00
5:51 AM,39.9,37.9,93,30.14,10.0,Calm,Calm,-,N/A,,Clear,0,2012-09-11 09:51:00
6:51 AM,41.0,39.0,93,30.17,10.0,Calm,Calm,-,N/A,,Clear,0,2012-09-11 10:51:00
7:51 AM,51.1,44.1,77,30.20,10.0,Calm,Calm,-,N/A,,Clear,0,2012-09-11 11:51:00
8:51 AM,57.0,43.0,59,30.21,10.0,WNW,4.6,-,N/A,,Clear,300,2012-09-11 12:51:00
9:51 AM,61.0,43.0,52,30.22,10.0,NW,10.4,-,N/A,,Clear,320,2012-09-11 13:51:00
10:51 AM,64.4,42.8,45,30.22,10.0,NW,8.1,-,N/A,,Clear,310,2012-09-11 14:51:00
11:51 AM,66.9,41.0,39,30.21,10.0,North,9.2,-,N/A,,Clear,350,2012-09-11 15:51:00
12:51 PM,70.0,37.0,30,30.20,10.0,NW,8.1,-,N/A,,Clear,310,2012-09-11 16:51:00
1:51 PM,71.1,39.9,32,30.19,10.0,Variable,6.9,-,N/A,,Clear,0,2012-09-11 17:51:00
2:51 PM,72.0,37.0,28,30.18,10.0,WNW,11.5,-,N/A,,Clear,290,2012-09-11 18:51:00
3:51 PM,73.0,39.9,30,30.17,10.0,West,6.9,-,N/A,,Clear,280,2012-09-11 19:51:00
4:51 PM,72.0,39.0,30,30.18,10.0,West,8.1,-,N/A,,Clear,270,2012-09-11 20:51:00
5:51 PM,71.6,39.2,31,30.18,10.0,WSW,5.8,-,N/A,,Clear,250,2012-09-11 21:51:00
6:51 PM,63.0,48.9,60,30.19,10.0,SSE,3.5,-,N/A,,Clear,160,2012-09-11 22:51:00
7:51 PM,57.0,48.9,74,30.22,10.0,Calm,Calm,-,N/A,,Clear,0,2012-09-11 23:51:00
8:51 PM,54.0,50.0,86,30.23,10.0,Calm,Calm,-,N/A,,Clear,0,2012-09-12 00:51:00
9:51 PM,51.1,48.0,89,30.24,10.0,Calm,Calm,-,N/A,,Clear,0,2012-09-12 01:51:00
10:51 PM,50.0,46.9,89,30.26,10.0,Calm,Calm,-,N/A,,Clear,0,2012-09-12 02:51:00
11:51 PM,46.9,45.0,93,30.27,10.0,Calm,Calm,-,N/A,,Clear,0,2012-09-12 03:51:00